TimeEDT,TemperatureF,Dew PointF,Humidity,Sea Level PressureIn,VisibilityMPH,Wind Direction,Wind SpeedMPH,Gust SpeedMPH,PrecipitationIn,Events,Conditions,WindDirDegrees,DateUTC
4:32 AM,59.0,57.2,94,29.90,7.0,North,5.8,-,N/A,,Overcast,350,2012-10-03 08:32:00
4:55 AM,60.8,57.2,88,29.94,10.0,Calm,Calm,-,N/A,,Overcast,0,2012-10-03 08:55:00
5:21 AM,60.8,57.2,88,29.92,7.0,NNW,3.5,-,N/A,Rain,Light Rain,340,2012-10-03 09:21:00
5:55 AM,59.0,57.2,94,29.95,7.0,NNE,4.6,-,N/A,Rain,Light Rain,30,2012-10-03 09:55:00
6:35 AM,59.0,57.2,94,29.94,7.0,Calm,Calm,-,N/A,,Overcast,0,2012-10-03 10:35:00
6:55 AM,59.0,57.2,94,29.97,7.0,Calm,Calm,-,N/A,,Light Drizzle,0,2012-10-03 10:55:00
7:11 AM,59.0,57.2,94,29.94,7.0,NNW,4.6,-,N/A,,Overcast,340,2012-10-03 11:11:00
7:22 AM,59.0,57.2,94,29.94,5.0,NNE,3.5,-,N/A,,Light Drizzle,30,2012-10-03 11:22:00
7:55 AM,59.0,59.0,100,29.99,3.0,North,3.5,-,N/A,,Light Drizzle,350,2012-10-03 11:55:00
8:10 AM,59.0,59.0,100,29.96,2.0,Calm,Calm,-,N/A,,Light Drizzle,0,2012-10-03 12:10:00
8:18 AM,59.0,57.2,94,29.97,1.8,NW,3.5,-,N/A,,Light Drizzle,310,2012-10-03 12:18:00
8:50 AM,59.0,59.0,100,29.97,2.5,NW,3.5,-,N/A,,Overcast,310,2012-10-03 12:50:00
8:55 AM,59.0,59.0,100,30.00,2.5,Calm,Calm,-,N/A,,Overcast,0,2012-10-03 12:55:00
9:22 AM,59.0,59.0,100,29.98,2.5,NNW,2.3,-,N/A,,Overcast,330,2012-10-03 13:22:00
9:48 AM,59.0,59.0,100,29.98,2.5,Calm,Calm,-,N/A,,Overcast,0,2012-10-03 13:48:00
9:55 AM,60.8,59.0,94,30.01,2.5,Calm,Calm,-,N/A,,Overcast,0,2012-10-03 13:55:00
10:37 AM,60.8,60.8,100,29.99,2.5,SE,3.5,-,N/A,,Overcast,140,2012-10-03 14:37:00
10:47 AM,60.8,60.8,100,29.99,2.5,South,3.5,-,N/A,,Overcast,170,2012-10-03 14:47:00
11:41 AM,62.6,60.8,94,29.99,3.0,Calm,Calm,-,N/A,,Overcast,0,2012-10-03 15:41:00
11:50 AM,64.4,60.8,88,29.99,3.0,SSE,4.6,-,N/A,,Overcast,160,2012-10-03 15:50:00
11:55 AM,64.4,60.8,88,30.02,3.0,South,3.5,-,N/A,,Overcast,170,2012-10-03 15:55:00
12:27 PM,66.2,60.8,83,30.02,5.0,SSW,11.5,17.3,N/A,,Haze,210,2012-10-03 16:27:00
12:55 PM,69.8,59.0,68,30.01,6.0,SSW,9.2,-,N/A,,Haze,210,2012-10-03 16:55:00
1:02 PM,69.8,59.0,68,29.99,10.0,SSW,9.2,-,N/A,,Overcast,200,2012-10-03 17:02:00
1:13 PM,69.8,57.2,64,30.02,10.0,SSW,6.9,-,N/A,,Overcast,210,2012-10-03 17:13:00
1:33 PM,68.0,57.2,68,29.99,10.0,WSW,9.2,-,N/A,,Overcast,250,2012-10-03 17:33:00
1:55 PM,68.0,57.2,68,30.01,10.0,SSW,9.2,-,N/A,,Overcast,200,2012-10-03 17:55:00
2:55 PM,66.2,57.2,73,30.02,12.0,South,12.7,-,N/A,,Overcast,180,2012-10-03 18:55:00
3:55 PM,66.2,55.4,68,30.02,12.0,South,11.5,-,N/A,,Overcast,190,2012-10-03 19:55:00
4:55 PM,64.4,53.6,68,30.04,12.0,SSW,11.5,-,N/A,,Overcast,200,2012-10-03 20:55:00
5:55 PM,62.6,55.4,77,30.05,12.0,SSW,13.8,-,N/A,,Overcast,210,2012-10-03 21:55:00
6:55 PM,62.6,55.4,77,30.06,12.0,SSW,6.9,-,N/A,,Overcast,200,2012-10-03 22:55:00
7:55 PM,62.6,55.4,77,30.08,12.0,South,6.9,-,N/A,,Overcast,190,2012-10-03 23:55:00
8:55 PM,60.8,55.4,82,30.08,12.0,South,5.8,-,N/A,,Overcast,180,2012-10-04 00:55:00
9:55 PM,60.8,57.2,88,30.09,12.0,South,8.1,-,N/A,,Overcast,180,2012-10-04 01:55:00
10:55 PM,60.8,55.4,82,30.09,12.0,South,4.6,-,N/A,,Overcast,180,2012-10-04 02:55:00